Showing default

EXPLORER 31 (ISIS-X), 1806

Orbit data source: Space-Track

EXPLORER 31 (ISIS-X), 1806 is a payload satellite owned by GSFC (US) in LEO that was launched on Mon, 29 Nov 1965 UTC via a THOR SLV-2 AGENA B launch vehicle from the Air Force Western Test Range (AFWTR). Payload-class satellites include a variety of spacecraft equipped with specific instruments for various scientific and technological missions. These include communications satellites like Starlink; space stations such as the ISS; scientific satellites like the Hubble; Earth observation satellites from companies like Planet Labs, Umbra, and HawkEye 360; GPS; miniature CubeSats for education and research; and military/defense satellites.

Loading next visibility...
Identifier
1806, 1965-098B
Orbit
LEO
Country
Flag of USUS
Related business
Manufacturer
APL
Mission
Spacecraft
Bus & Motor
DME, Unknown motor
Mass
98 kg wet, 98 kg dry
Launch date (UTC)
1965-11-29 (61 years ago)
Launch vehicle
THOR SLV-2 AGENA B
Launch site
Air Force Western Test Range (AFWTR)
Object type
Payload
Rocket body
Debris
Shape & HBR
OCT CYL, 0.6 m
Radar Cross Section
Medium (>0.1 m² and <1 m²)

Expand to show TLE details & history
Last TLE update: 16 hours ago

TLE from 16 hours ago
0 EXPLORER 31 (ISIS-X)
1 01806U 65098B   26248.08675114 -.00000045  00000-0 -15960-4 0  9993
2 01806  79.7722 283.9258 1422689 338.0088  16.5311 12.08383924658343
Epoch: 2026-09-05T02:04Z
TLE epoch observation values (Epoch: 2026-09-05T02:04:55.298Z)
Latitude
0.00004°
Longitude
-91.50587°
Altitude
568.397 km
Speed
8.07 km/s
True Right ascension
18h 55m 42s
True Declination
0° 00' 00"
Sunlit
Object was in full shadow at epoch
Visualization orbit readout
Latitude
Unknown
Longitude
Unknown
Altitude
Unknown
Speed
Unknown
Apparent Right ascension
Unknown
Apparent Declination
Unknown
Sunlit
N/A
Visualization observer readout
Local Sidereal Time
09:38:00
Azimuth
Unknown
Elevation
Unknown
Doppler factor
Unknown
Orbital elements
Apogee altitude
2,781.855 km
Perigee altitude
500.112 km
Semi-major axis
8,019.12 km
Eccentricity
0.14227
Inclination
79.7722°
RAAN
283.9258°
Arg. of periapsis
338.0088°
True anomaly
22.10454°
Mean anomaly
16.5311°
Eccentric anomaly
19.21366°
Mean motion
3.02241 °/min
Orbital period
119.11 mins
BSTAR
-0.00001596
Loading maneuver chart data...
Computing Atmospheric mass density...
Loading historical data...
Loading historical data...
Loading historical data...
Loading historical data...
Loading historical data...
Loading historical data...
Loading historical data...

Documentation

Showing up to 5 results
|